Weather History for KGYL - February, 2014

Change the Weather History Date:

Tuesday, February 18, 2014

  Actual Average (KHCD) Record (KHCD)
Temperature  
Mean Temperature 32 °F -  
Max Temperature 38 °F 30 °F 59 °F (1981)
Min Temperature 25 °F 13 °F -16 °F (2006)
Degree Days  
Heating Degree Days 34    
Moisture  
Dew Point 23 °F    
Average Humidity 70    
Maximum Humidity 89    
Minimum Humidity 59    
Precipitation  
Precipitation 0.00 in - - ()
Sea Level Pressure  
Sea Level Pressure 29.62 in    
Wind  
Wind Speed 8 mph (SW)    
Max Wind Speed 17 mph    
Max Gust Speed 21 mph    
Visibility 10 miles    
Events      
Averages and records for this station are not official NWS values.
T = Trace of Precipitation, MM = Missing Value Source: NWS Daily Summary

Daily Weather History Graph

Daily Weather History Graph

Search for Another Location

Airport or City:

Trip Planner

Search our weather history database for the weather conditions in past years. The results will help you decide how hot, cold, wet, or windy it might be!

Date:

Astronomy

Feb. 18, 2014 Rise Set
Actual Time 7:12 AM CST 5:49 PM CST
Civil Twilight 6:42 AM CST 6:18 PM CST
Nautical Twilight 6:08 AM CST 6:53 PM CST
Astronomical Twilight 5:34 AM CST 7:26 PM CST
Moon 9:55 PM CST (2/18) 8:34 AM CST (2/18)
Length of Visible Light 11h 36m
Length of Day
10h 36m
Waning Gibbous, 87% of the Moon is Illuminated
Feb 18
Waning Gibbous
Feb 22
Last Quarter
Mar 1
New
Mar 8
First Quarter
Mar 16
Full

Hourly Weather History & Observations

Time (CST) Temp. Windchill Dew Point Humidity Pressure Visibility Wind Dir Wind Speed Gust Speed Precip Events Conditions
12:13 AM 25.3 °F 18.5 °F 22.5 °F 89% 29.73 in 10.0 mi South 5.8 mph - N/A   Overcast
12:32 AM 26.2 °F 17.8 °F 23.4 °F 89% 29.72 in 10.0 mi South 8.1 mph - N/A   Mostly Cloudy
12:52 AM 26.4 °F 19.8 °F 23.5 °F 89% 29.70 in 10.0 mi South 5.8 mph - N/A   Scattered Clouds
1:12 AM 27.1 °F 20.7 °F 23.0 °F 84% 29.69 in 10.0 mi South 5.8 mph - N/A   Clear
1:32 AM 27.0 °F 21.6 °F 21.4 °F 79% 29.68 in 10.0 mi South 4.6 mph - N/A   Clear
1:53 AM 26.6 °F 21.2 °F 20.5 °F 78% 29.67 in 10.0 mi SE 4.6 mph - N/A   Clear
2:12 AM 26.8 °F 19.3 °F 19.9 °F 75% 29.65 in 10.0 mi SSE 6.9 mph - N/A   Clear
2:33 AM 28.2 °F 20.2 °F 20.1 °F 72% 29.64 in 10.0 mi SSE 8.1 mph - N/A   Clear
2:53 AM 28.2 °F 20.2 °F 19.0 °F 68% 29.62 in 10.0 mi SE 8.1 mph - N/A   Clear
3:12 AM 27.1 °F 19.7 °F 18.5 °F 70% 29.61 in 10.0 mi SSE 6.9 mph - N/A   Clear
3:32 AM 27.3 °F 19.9 °F 18.3 °F 69% 29.59 in 10.0 mi SE 6.9 mph - N/A   Clear
3:52 AM 27.0 °F 19.5 °F 18.3 °F 70% 29.58 in 10.0 mi SE 6.9 mph - N/A   Clear
4:13 AM 27.3 °F 19.9 °F 18.1 °F 68% 29.58 in 10.0 mi SSE 6.9 mph - N/A   Clear
4:32 AM 28.8 °F 21.7 °F 19.0 °F 67% 29.57 in 10.0 mi SSE 6.9 mph - N/A   Clear
4:52 AM 28.8 °F 20.9 °F 19.0 °F 67% 29.56 in 10.0 mi SSE 8.1 mph - N/A   Clear
5:12 AM 28.4 °F 22.2 °F 19.0 °F 68% 29.56 in 10.0 mi South 5.8 mph - N/A   Clear
5:32 AM 29.3 °F 22.3 °F 19.4 °F 67% 29.56 in 10.0 mi South 6.9 mph - N/A   Clear
5:52 AM 28.4 °F 20.4 °F 19.0 °F 68% 29.56 in 10.0 mi South 8.1 mph - N/A   Clear
6:12 AM 28.0 °F 20.8 °F 18.9 °F 68% 29.55 in 10.0 mi South 6.9 mph - N/A   Clear
6:32 AM 27.7 °F 21.3 °F 18.3 °F 68% 29.54 in 10.0 mi South 5.8 mph - N/A   Clear
6:52 AM 26.2 °F 17.8 °F 17.6 °F 70% 29.53 in 10.0 mi South 8.1 mph - N/A   Clear
7:13 AM 26.4 °F 18.9 °F 17.6 °F 69% 29.53 in 10.0 mi South 6.9 mph - N/A   Clear
7:33 AM 26.6 °F 19.1 °F 18.0 °F 70% 29.53 in 10.0 mi South 6.9 mph - N/A   Clear
7:53 AM 26.2 °F 17.8 °F 17.6 °F 70% 29.54 in 10.0 mi South 8.1 mph - N/A   Clear
8:13 AM 26.6 °F 21.2 °F 17.6 °F 69% 29.54 in 10.0 mi South 4.6 mph - N/A   Clear
8:33 AM 26.2 °F 22.1 °F 17.4 °F 69% 29.53 in 10.0 mi South 3.5 mph - N/A   Clear
8:53 AM 27.5 °F 23.6 °F 18.3 °F 68% 29.52 in 10.0 mi South 3.5 mph - N/A   Clear
9:13 AM 27.5 °F 22.2 °F 18.1 °F 68% 29.54 in 10.0 mi SSW 4.6 mph - N/A   Clear
9:33 AM 28.0 °F 20.8 °F 18.5 °F 67% 29.55 in 10.0 mi SSW 6.9 mph - N/A   Clear
9:53 AM 28.9 °F 22.8 °F 18.5 °F 65% 29.54 in 10.0 mi SSW 5.8 mph - N/A   Clear
10:13 AM 28.8 °F 23.7 °F 18.9 °F 67% 29.54 in 10.0 mi SSW 4.6 mph - N/A   Clear
10:32 AM 30.4 °F 24.5 °F 19.6 °F 64% 29.53 in 10.0 mi SSW 5.8 mph - N/A   Clear
10:53 AM 32.9 °F 28.5 °F 20.5 °F 60% 29.54 in 10.0 mi SW 4.6 mph - N/A   Clear
11:12 AM 32.9 °F 25.9 °F 21.0 °F 62% 29.55 in 10.0 mi SW 8.1 mph - N/A   Clear
11:33 AM 33.1 °F 28.7 °F 21.9 °F 64% 29.55 in 10.0 mi SW 4.6 mph - N/A   Clear
11:53 AM 33.4 °F 28.1 °F 22.6 °F 65% 29.56 in 10.0 mi West 5.8 mph - N/A   Clear
12:12 PM 34.7 °F 29.6 °F 23.0 °F 62% 29.56 in 10.0 mi WSW 5.8 mph - N/A   Clear
12:33 PM 35.2 °F 29.5 °F 24.1 °F 64% 29.55 in 10.0 mi West 6.9 mph - N/A   Clear
12:52 PM 36.9 °F 29.1 °F 24.6 °F 61% 29.55 in 10.0 mi WNW 11.5 mph - N/A   Clear
1:13 PM 37.0 °F 31.0 °F 24.6 °F 61% 29.55 in 10.0 mi West 8.1 mph - N/A   Clear
1:33 PM 37.8 °F 33.3 °F 24.4 °F 59% 29.55 in 10.0 mi WNW 5.8 mph - N/A   Clear
1:53 PM 37.9 °F 32.7 °F 24.8 °F 59% 29.56 in 10.0 mi West 6.9 mph - N/A   Clear
2:13 PM 37.9 °F 32.7 °F 24.8 °F 59% 29.56 in 10.0 mi WNW 6.9 mph - N/A   Clear
2:33 PM 37.8 °F 34.2 °F 25.5 °F 61% 29.56 in 10.0 mi West 4.6 mph - N/A   Clear
2:52 PM 38.1 °F 32.9 °F 25.7 °F 61% 29.57 in 10.0 mi West 6.9 mph - N/A   Clear
3:13 PM 38.5 °F 34.1 °F 25.5 °F 60% 29.57 in 10.0 mi West 5.8 mph - N/A   Clear
3:33 PM 38.3 °F 33.2 °F 25.9 °F 61% 29.58 in 10.0 mi West 6.9 mph - N/A   Scattered Clouds
3:52 PM 37.8 °F 34.2 °F 26.6 °F 64% 29.59 in 10.0 mi WSW 4.6 mph - N/A   Scattered Clouds
4:13 PM 37.0 °F 30.4 °F 26.6 °F 66% 29.60 in 10.0 mi West 9.2 mph - N/A   Scattered Clouds
4:33 PM 36.9 °F 31.4 °F 27.3 °F 68% 29.60 in 10.0 mi West 6.9 mph - N/A   Clear
4:45 PM 36.9 °F 31.4 °F 27.3 °F 68% 29.61 in 10.0 mi West 6.9 mph - N/A   Clear
5:13 PM 37.4 °F 29.8 °F 27.9 °F 68% 29.63 in 10.0 mi West 11.5 mph - N/A   Clear
5:33 PM 37.0 °F 29.3 °F 28.4 °F 71% 29.64 in 10.0 mi West 11.5 mph - N/A   Scattered Clouds
5:52 PM 36.7 °F 28.0 °F 28.4 °F 72% 29.65 in 10.0 mi West 13.8 mph - N/A   Scattered Clouds
6:13 PM 36.1 °F 26.5 °F 28.2 °F 73% 29.66 in 10.0 mi West 16.1 mph 20.7 mph N/A   Scattered Clouds
6:32 PM 35.6 °F 26.6 °F 28.2 °F 75% 29.68 in 10.0 mi West 13.8 mph - N/A   Scattered Clouds
6:53 PM 35.4 °F 27.3 °F 28.0 °F 75% 29.68 in 10.0 mi West 11.5 mph - N/A   Scattered Clouds
7:12 PM 35.2 °F 27.1 °F 27.9 °F 74% 29.69 in 10.0 mi West 11.5 mph - N/A   Clear
7:32 PM 34.7 °F 25.5 °F 27.5 °F 75% 29.70 in 10.0 mi West 13.8 mph - N/A   Clear
7:53 PM 34.2 °F 24.8 °F 27.0 °F 75% 29.71 in 10.0 mi West 13.8 mph - N/A   Clear
8:13 PM 33.3 °F 23.7 °F 26.6 °F 77% 29.72 in 10.0 mi West 13.8 mph - N/A   Scattered Clouds
8:32 PM 32.5 °F 21.5 °F 26.4 °F 78% 29.73 in 10.0 mi West 17.3 mph 20.7 mph N/A   Scattered Clouds
8:53 PM 32.0 °F 21.6 °F 25.7 °F 78% 29.74 in 10.0 mi West 15.0 mph - N/A   Scattered Clouds
9:12 PM 31.8 °F 21.4 °F 25.3 °F 77% 29.75 in 10.0 mi West 15.0 mph - N/A   Clear
9:33 PM 31.3 °F 21.6 °F 24.8 °F 77% 29.75 in 10.0 mi West 12.7 mph 19.6 mph N/A   Clear
9:52 PM 30.6 °F 20.7 °F 24.4 °F 78% 29.75 in 10.0 mi West 12.7 mph - N/A   Clear
10:12 PM 29.8 °F 19.3 °F 23.9 °F 79% 29.77 in 10.0 mi West 13.8 mph - N/A   Clear
10:33 PM 29.7 °F 19.1 °F 23.9 °F 79% 29.77 in 10.0 mi West 13.8 mph - N/A   Clear
10:52 PM 29.3 °F 18.2 °F 23.7 °F 80% 29.77 in 10.0 mi West 15.0 mph - N/A   Clear
11:13 PM 28.9 °F 19.2 °F 23.4 °F 80% 29.77 in 10.0 mi WNW 11.5 mph - N/A   Clear
11:32 PM 28.8 °F 18.4 °F 23.0 °F 79% 29.77 in 10.0 mi West 12.7 mph - N/A   Clear
11:53 PM 27.7 °F 18.2 °F 22.5 °F 81% 29.77 in 10.0 mi West 10.4 mph - N/A   Clear